Weather History for Houston / Southwest Airport, TX

Change the Weather History Date:

Thursday, January 30, 2014

  Actual Average (KHOU) Record (KHOU)
Temperature  
Mean Temperature 40 °F 54 °F  
Max Temperature 59 °F 64 °F 84 °F (1911)
Min Temperature 20 °F 44 °F 18 °F (1949)
Degree Days  
Heating Degree Days 26 12  
Month to date heating degree days 378  
Since 1 July heating degree days 917  
Moisture  
Dew Point 39 °F    
Average Humidity 74    
Maximum Humidity 92    
Minimum Humidity 55    
Precipitation  
Precipitation 0.00 in 0.12 in 1.64 in (1972)
Month to date precipitation 3.27  
Year to date precipitation 3.27  
Sea Level Pressure  
Sea Level Pressure 30.13 in    
Wind  
Wind Speed 5 mph (SE)    
Max Wind Speed 17 mph    
Max Gust Speed 24 mph    
Visibility 10 miles    
Events      
T = Trace of Precipitation, MM = Missing Value Source: NWS Daily Summary

Daily Weather History Graph

Daily Weather History Graph

Search for Another Location

Airport:

Trip Planner

Search our weather history database for the weather conditions in past years. The results will help you decide how hot, cold, wet, or windy it might be!

Date:

Astronomy

Jan. 30, 2014 Rise Set
Actual Time 7:12 AM CST 5:58 PM CST
Civil Twilight 6:47 AM CST 6:23 PM CST
Nautical Twilight 6:18 AM CST 6:51 PM CST
Astronomical Twilight 5:50 AM CST 7:20 PM CST
Moon 6:42 AM CST (1/30) 6:06 PM CST (1/30)
Length of Visible Light 11h 35m
Length of Day
10h 45m
Waning Crescent, 0% of the Moon is Illuminated
Jan 30
Waning Crescent
Jan 30
New
Feb 6
First Quarter
Feb 14
Full
Feb 22
Last Quarter

Hourly Weather History & Observations

Time (CST) Temp. Windchill Dew Point Humidity Pressure Visibility Wind Dir Wind Speed Gust Speed Precip Events Conditions
12:15 AM 24.1 °F - 19.9 °F 84% 30.33 in 10.0 mi Calm Calm - N/A   Clear
12:35 AM 23.2 °F - 19.6 °F 86% 30.32 in 10.0 mi Calm Calm - N/A   Clear
12:55 AM 22.5 °F - 18.9 °F 86% 30.32 in 10.0 mi Calm Calm - N/A   Clear
1:15 AM 21.4 °F - 18.7 °F 89% 30.30 in 10.0 mi Calm Calm - N/A   Clear
1:35 AM 20.7 °F - 18.1 °F 90% 30.30 in 10.0 mi Calm Calm - N/A   Clear
1:55 AM 22.8 °F - 20.3 °F 90% 30.30 in 10.0 mi Calm Calm - N/A   Clear
2:15 AM 22.8 °F - 20.3 °F 90% 30.29 in 10.0 mi Calm Calm - N/A   Clear
2:35 AM 21.6 °F - 19.0 °F 90% 30.28 in 10.0 mi Calm Calm - N/A   Clear
2:55 AM 22.6 °F - 20.7 °F 92% 30.28 in 10.0 mi Calm Calm - N/A   Clear
3:15 AM 23.4 °F - 19.9 °F 87% 30.27 in 10.0 mi Calm Calm - N/A   Clear
3:35 AM 23.0 °F - 19.9 °F 88% 30.27 in 10.0 mi Calm Calm - N/A   Scattered Clouds
3:55 AM 24.4 °F - 20.5 °F 85% 30.27 in 10.0 mi Calm Calm - N/A   Scattered Clouds
4:15 AM 28.4 °F 23.3 °F 23.9 °F 83% 30.26 in 10.0 mi East 4.6 mph - N/A   Overcast
4:35 AM 31.6 °F 25.1 °F 24.8 °F 76% 30.24 in 10.0 mi East 6.9 mph - N/A   Overcast
4:55 AM 33.3 °F 28.9 °F 26.1 °F 75% 30.23 in 10.0 mi East 4.6 mph - N/A   Overcast
5:15 AM 33.4 °F 30.4 °F 26.6 °F 76% 30.22 in 10.0 mi East 3.5 mph - N/A   Overcast
5:35 AM 34.2 °F 30.0 °F 27.3 °F 76% 30.22 in 10.0 mi East 4.6 mph - N/A   Overcast
5:55 AM 35.2 °F 31.2 °F 28.4 °F 76% 30.22 in 10.0 mi East 4.6 mph - N/A   Overcast
6:15 AM 35.2 °F 32.4 °F 29.3 °F 79% 30.22 in 10.0 mi ESE 3.5 mph - N/A   Overcast
6:35 AM 35.8 °F - 29.7 °F 78% 30.22 in 10.0 mi Calm Calm - N/A   Overcast
6:55 AM 36.7 °F 34.1 °F 30.4 °F 78% 30.21 in 10.0 mi East 3.5 mph - N/A   Overcast
7:15 AM 37.8 °F 34.2 °F 31.6 °F 79% 30.20 in 10.0 mi East 4.6 mph - N/A   Overcast
7:35 AM 38.8 °F 35.4 °F 32.0 °F 76% 30.19 in 10.0 mi ESE 4.6 mph - N/A   Overcast
7:55 AM 40.3 °F 36.3 °F 33.8 °F 78% 30.19 in 10.0 mi ESE 5.8 mph - N/A   Overcast
8:15 AM 41.9 °F 38.2 °F 34.9 °F 76% 30.20 in 10.0 mi ESE 5.8 mph - N/A   Overcast
8:35 AM 43.3 °F 39.9 °F 35.8 °F 75% 30.19 in 10.0 mi ESE 5.8 mph - N/A   Overcast
8:55 AM 44.6 °F 40.7 °F 36.7 °F 74% 30.20 in 10.0 mi ESE 6.9 mph - N/A   Overcast
9:15 AM 46.6 °F - 37.6 °F 71% 30.19 in 10.0 mi ESE 5.8 mph - N/A   Overcast
9:35 AM 48.6 °F - 38.5 °F 68% 30.19 in 10.0 mi SE 9.2 mph - N/A   Overcast
9:55 AM 50.0 °F - 38.8 °F 66% 30.20 in 10.0 mi SE 11.5 mph - N/A   Overcast
10:15 AM 50.9 °F - 39.2 °F 64% 30.21 in 10.0 mi SE 11.5 mph 18.4 mph N/A   Overcast
10:35 AM 52.2 °F - 40.1 °F 64% 30.19 in 10.0 mi SE 9.2 mph 18.4 mph N/A   Overcast
10:55 AM 54.1 °F - 40.8 °F 61% 30.19 in 10.0 mi SSE 9.2 mph 21.9 mph N/A   Overcast
11:15 AM 55.9 °F - 41.0 °F 57% 30.18 in 10.0 mi SE 17.3 mph 21.9 mph N/A   Overcast
11:35 AM 57.6 °F - 41.5 °F 55% 30.17 in 10.0 mi SSE 12.7 mph 23.0 mph N/A   Scattered Clouds
11:55 AM 57.2 °F - 42.1 °F 57% 30.16 in 10.0 mi SSE 12.7 mph 19.6 mph N/A   Overcast
12:15 PM 58.1 °F - 42.6 °F 56% 30.15 in 10.0 mi SSE 16.1 mph 21.9 mph N/A   Overcast
12:35 PM 57.4 °F - 42.8 °F 58% 30.14 in 10.0 mi SSE 16.1 mph 21.9 mph N/A   Overcast
12:55 PM 58.3 °F - 43.5 °F 58% 30.12 in 10.0 mi SSE 13.8 mph 20.7 mph N/A   Overcast
1:15 PM 58.3 °F - 43.5 °F 58% 30.11 in 10.0 mi SSE 15.0 mph 19.6 mph N/A   Overcast
1:35 PM 59.0 °F - 44.1 °F 58% 30.09 in 10.0 mi SE 15.0 mph 21.9 mph N/A   Overcast
1:55 PM 58.6 °F - 44.2 °F 59% 30.08 in 10.0 mi SE 12.7 mph 20.7 mph N/A   Overcast
2:15 PM 59.0 °F - 44.8 °F 59% 30.08 in 10.0 mi SSE 11.5 mph 23.0 mph N/A   Overcast
2:35 PM 58.3 °F - 45.0 °F 61% 30.06 in 10.0 mi SSE 12.7 mph 18.4 mph N/A   Overcast
2:55 PM 59.2 °F - 45.3 °F 60% 30.05 in 10.0 mi SE 15.0 mph 24.2 mph N/A   Overcast
3:15 PM 59.0 °F - 45.9 °F 62% 30.05 in 10.0 mi SE 15.0 mph 20.7 mph N/A   Overcast
3:35 PM 58.6 °F - 46.4 °F 64% 30.05 in 10.0 mi SSE 13.8 mph 17.3 mph N/A   Overcast
3:55 PM 58.1 °F - 46.4 °F 65% 30.04 in 10.0 mi SSE 10.4 mph 18.4 mph N/A   Overcast
4:15 PM 57.7 °F - 46.8 °F 67% 30.04 in 10.0 mi SSE 12.7 mph 18.4 mph N/A   Overcast
4:35 PM 57.4 °F - 47.3 °F 69% 30.04 in 10.0 mi SSE 13.8 mph 19.6 mph N/A   Overcast
4:55 PM 57.2 °F - 47.3 °F 69% 30.04 in 10.0 mi SSE 11.5 mph 20.7 mph N/A   Overcast
5:15 PM 57.0 °F - 47.7 °F 71% 30.04 in 10.0 mi SSE 9.2 mph 16.1 mph N/A   Overcast
5:35 PM 56.7 °F - 47.8 °F 72% 30.03 in 10.0 mi SSE 9.2 mph - N/A   Overcast
5:55 PM 56.5 °F - 48.2 °F 74% 30.01 in 10.0 mi SSE 11.5 mph - N/A   Overcast
6:15 PM 56.3 °F - 48.2 °F 74% 30.01 in 10.0 mi South 10.4 mph - N/A   Overcast
6:35 PM 56.3 °F - 48.6 °F 75% 29.99 in 10.0 mi SSE 12.7 mph 16.1 mph N/A   Overcast
6:55 PM 56.3 °F - 49.1 °F 77% 29.99 in 10.0 mi South 10.4 mph - N/A   Overcast
7:15 PM 56.3 °F - 49.1 °F 77% 30.00 in 10.0 mi South 9.2 mph - N/A   Overcast
7:35 PM 55.9 °F - 49.1 °F 78% 30.01 in 10.0 mi South 9.2 mph - N/A   Overcast
7:55 PM 56.3 °F - 49.5 °F 78% 30.01 in 10.0 mi South 10.4 mph - N/A   Overcast
8:15 PM 56.3 °F - 49.6 °F 78% 30.00 in 10.0 mi SSE 9.2 mph - N/A   Overcast
8:35 PM 56.3 °F - 50.0 °F 79% 30.00 in 10.0 mi South 10.4 mph - N/A   Overcast
8:55 PM 56.3 °F - 50.2 °F 80% 29.99 in 10.0 mi South 10.4 mph 16.1 mph N/A   Overcast
9:15 PM 56.7 °F - 50.5 °F 80% 29.99 in 10.0 mi SSE 11.5 mph 17.3 mph N/A   Overcast
9:35 PM 57.0 °F - 50.9 °F 80% 30.00 in 10.0 mi South 8.1 mph - N/A   Overcast
9:55 PM 56.8 °F - 51.1 °F 81% 29.99 in 10.0 mi South 10.4 mph - N/A   Overcast
10:15 PM 56.8 °F - 51.4 °F 82% 29.99 in 10.0 mi SSE 8.1 mph - N/A   Overcast
10:35 PM 57.2 °F - 51.8 °F 82% 29.99 in 10.0 mi SSE 9.2 mph - N/A   Overcast
10:55 PM 57.2 °F - 52.0 °F 83% 29.99 in 10.0 mi South 6.9 mph - N/A   Overcast
11:15 PM 57.2 °F - 52.0 °F 83% 29.99 in 10.0 mi South 8.1 mph - N/A   Overcast
11:35 PM 57.0 °F - 52.2 °F 84% 29.99 in 10.0 mi South 4.6 mph - N/A   Overcast
11:55 PM 57.2 °F - 52.3 °F 84% 29.98 in 10.0 mi South 6.9 mph - N/A   Overcast